ATLAS 5 CENTAUR DEB, 43963

Orbit data source: Space-Track

ATLAS 5 CENTAUR DEB, 43963 is space debris in HEO originally from a launch on Wed, 17 Sep 2014 UTC launched from the Air Force Eastern Test Range (AFETR). Debris objects in space refer to the collection of defunct objects orbiting the Earth. Examples of debris include non-operational satellites, rocket bodies, and fragments generated from explosions, collisions, or faulty payload assembly.

Loading next visibility...
Identifier
43963, 2014-055S
Orbit
HEO
Country
Flag of USUS
Related business
Flag of USUnited Launch Alliance/Lockheed Martin (US)
Manufacturer
Unknown
Mission
Spacecraft
Bus & Motor
Unknown
Mass
Unknown
Launch date (UTC)
2014-09-17 (11 years ago)
Launch vehicle
Unknown
Launch site
Air Force Eastern Test Range (AFETR)
Object type
Payload
Rocket body
Debris
Shape & HBR
Unknown shape, 1.1 m
Radar Cross Section
Small (<0.1 m²)

Expand to show TLE details & history
Last TLE update: 20 hours ago

TLE from 20 hours ago
0 ATLAS 5 CENTAUR DEB
1 43963U 14055S   26035.00845177 -.00000118  00000-0  00000-0 0  9999
2 43963  20.4643 137.7848 4973861 177.8680 185.4946  1.87944219 50961
Epoch: 2026-02-04T00:12Z
TLE epoch observation values (Epoch: 2026-02-04T00:12:10.232Z)
Latitude
0.00002°
Longitude
0.5476°
Altitude
35,150.97 km
Speed
2.197 km/s
True Right ascension
09h 11m 05s
True Declination
0° 00' 00"
Sunlit
Object was in daylight at epoch
Visualization orbit readout
Latitude
Unknown
Longitude
Unknown
Altitude
Unknown
Speed
Unknown
Apparent Right ascension
Unknown
Apparent Declination
Unknown
Sunlit
N/A
Visualization observer readout
Local Sidereal Time
21:47:44
Azimuth
Unknown
Elevation
Unknown
Doppler factor
Unknown
Orbital elements
Apogee altitude
35,156.876 km
Perigee altitude
7,563.541 km
Semi-major axis
27,738.346 km
Eccentricity
0.49739
Inclination
20.4643°
RAAN
137.7848°
Arg. of periapsis
177.868°
True anomaly
182.12691°
Mean anomaly
185.4946°
Eccentric anomaly
183.67029°
Mean motion
0.46981 °/min
Orbital period
766.27 mins
BSTAR
0
Loading maneuver chart data...
Computing Atmospheric mass density...

Documentation

Showing up to 5 results
|